Location: Rowland
(34.5359°N, 79.2929°W)
Time: 15:16:59
(UTC+00:00)

SR - Pass Details

Date: 07 October 2022
Orbit: 577 x 875 km, 66.7° (Epoch: 28 November)

Event Time Altitude Azimuth Distance (km) Brightness Sun altitude
Rises 01:34:58 0° 230° (SW) 3,411 ? -33.5°
Reaches altitude 10° 01:37:38 10° 240° (WSW) 2,500 ? -34.1°
Maximum altitude 01:42:54 34° 304° (NW) 1,402 ? -35.1°
Enters shadow 01:45:41 23° 350° (N) 1,782 ? -35.6°
Drops below altitude 10° 01:48:12 10° 8° (N) 2,518 - -36.1°
Sets 01:50:55 0° 18° (NNE) 3,439 - -36.6°
